TimeEDT,TemperatureF,Dew PointF,Humidity,Sea Level PressureIn,VisibilityMPH,Wind Direction,Wind SpeedMPH,Gust SpeedMPH,PrecipitationIn,Events,Conditions,WindDirDegrees,DateUTC
12:53 AM,80.1,75.0,85,29.99,10.0,NE,5.8,-,N/A,,Clear,50,2013-09-19 04:53:00
1:53 AM,79.0,75.9,90,29.98,10.0,East,5.8,-,N/A,,Clear,90,2013-09-19 05:53:00
2:53 AM,79.0,75.9,90,29.95,10.0,East,5.8,-,N/A,,Mostly Cloudy,90,2013-09-19 06:53:00
3:53 AM,79.0,75.9,90,29.94,10.0,NE,3.5,-,N/A,,Partly Cloudy,50,2013-09-19 07:53:00
4:53 AM,79.0,75.9,90,29.94,10.0,Calm,Calm,-,N/A,,Partly Cloudy,0,2013-09-19 08:53:00
5:13 AM,78.8,75.2,89,29.95,10.0,North,3.5,-,N/A,,Mostly Cloudy,10,2013-09-19 09:13:00
5:26 AM,78.8,75.2,89,29.94,10.0,North,3.5,-,N/A,,Mostly Cloudy,10,2013-09-19 09:26:00
5:42 AM,78.8,75.2,89,29.95,10.0,SSW,3.5,-,N/A,Thunderstorm,Mostly Cloudy,210,2013-09-19 09:42:00
5:49 AM,78.8,77.0,94,29.95,10.0,Calm,Calm,-,N/A,Thunderstorm,Mostly Cloudy,0,2013-09-19 09:49:00
5:53 AM,79.0,77.0,94,29.95,10.0,Calm,Calm,-,N/A,Thunderstorm,Mostly Cloudy,0,2013-09-19 09:53:00
6:02 AM,78.8,75.2,89,29.95,10.0,WSW,5.8,-,N/A,,Overcast,250,2013-09-19 10:02:00
6:22 AM,78.8,73.4,83,29.96,10.0,South,6.9,-,0.00,Rain,Light Rain,180,2013-09-19 10:22:00
6:53 AM,77.0,75.0,94,29.96,5.0,Calm,Calm,-,0.02,Rain,Rain,0,2013-09-19 10:53:00
7:08 AM,78.8,75.2,89,29.95,10.0,Calm,Calm,-,0.00,Rain,Light Rain,0,2013-09-19 11:08:00
7:53 AM,78.1,75.0,90,29.96,10.0,Calm,Calm,-,0.00,,Clear,0,2013-09-19 11:53:00
8:53 AM,79.0,75.9,90,29.99,10.0,Calm,Calm,-,N/A,,Clear,0,2013-09-19 12:53:00
9:53 AM,81.0,75.9,85,30.00,10.0,Calm,Calm,-,N/A,,Clear,0,2013-09-19 13:53:00
10:53 AM,84.0,77.0,79,30.00,10.0,NNE,8.1,-,N/A,,Partly Cloudy,30,2013-09-19 14:53:00
11:53 AM,84.9,73.0,67,30.00,10.0,NE,9.2,-,N/A,,Clear,40,2013-09-19 15:53:00
12:53 PM,84.9,77.0,77,29.99,10.0,NE,9.2,-,N/A,,Partly Cloudy,40,2013-09-19 16:53:00
1:53 PM,88.0,77.0,70,29.98,10.0,NNE,6.9,-,N/A,,Partly Cloudy,30,2013-09-19 17:53:00
2:53 PM,86.0,75.9,72,29.96,10.0,ENE,8.1,-,N/A,,Partly Cloudy,60,2013-09-19 18:53:00
3:53 PM,88.0,75.0,65,29.95,10.0,ENE,4.6,-,N/A,,Clear,60,2013-09-19 19:53:00
4:23 PM,84.2,75.2,74,29.96,10.0,SE,8.1,-,N/A,,Mostly Cloudy,130,2013-09-19 20:23:00
4:53 PM,84.9,77.0,77,29.96,10.0,ESE,6.9,-,N/A,,Mostly Cloudy,120,2013-09-19 20:53:00
5:53 PM,84.9,73.9,69,29.96,10.0,SE,6.9,-,N/A,,Clear,140,2013-09-19 21:53:00
6:53 PM,82.9,75.0,77,29.96,10.0,SSE,4.6,-,N/A,,Clear,150,2013-09-19 22:53:00
7:53 PM,82.9,75.0,77,29.97,10.0,SE,4.6,-,N/A,,Clear,130,2013-09-19 23:53:00
8:53 PM,79.0,75.0,88,30.00,9.0,NNE,6.9,-,0.00,Rain-Thunderstorm,Light Thunderstorms and Rain,20,2013-09-20 00:53:00
9:17 PM,78.8,73.4,83,30.00,10.0,NNE,3.5,-,0.02,Rain,Light Rain,30,2013-09-20 01:17:00
9:53 PM,78.1,75.0,90,30.00,10.0,North,4.6,-,0.02,,Mostly Cloudy,360,2013-09-20 01:53:00
10:53 PM,78.1,75.0,90,30.00,10.0,NNE,4.6,-,N/A,,Clear,20,2013-09-20 02:53:00
11:53 PM,78.1,73.9,87,30.00,10.0,NE,4.6,-,N/A,,Clear,40,2013-09-20 03:53:00